Regional Weather Roundup
Issued by NWS

Home | Current Version | Previous Version | Text Only | Print | Product List | Glossary Off
Versions: 1 2 3 4 5 6 7 8 9 10 11 12 13 14 15 16 17 18 19 20 21 22 23 24 25 26 27 28 29 30 31 32 33 34 35 36 37 38 39 40 41 42 43 44 45 46 47 48 49 50

000
ASUS45 KPSR 242010
RWRAZ

ARIZONA HOURLY REGIONAL WEATHER ROUNDUP
NATIONAL WEATHER SERVICE PHOENIX AZ
100 PM MST SUN SEP 24 2017

NOTE: FAIR INDICATES FEW OR NO CLOUDS BELOW 12,000 FEET WITH NO
SIGNIFICANT WEATHER AND/OR OBSTRUCTIONS TO VISIBILITY.

AZZ001>003-036-242100-
NORTHWEST ARIZONA

CITY           SKY/WX    TMP DP  RH WIND       PRES   REMARKS
BULLHEAD CITY  SUNNY     77  27  15 N20       29.91F
KINGMAN        SUNNY     69  28  21 N9        29.99F
$$

AZZ004>008-015-016-018-242100-
NORTH CENTRAL ARIZONA

CITY           SKY/WX    TMP DP  RH WIND       PRES   REMARKS
GRAND CANYON   SUNNY     55  12  18 N7        30.03F
WILLIAMS       SUNNY     55   9  15 N8        30.04F
PRESCOTT       SUNNY     64  18  17 MISG      29.99F
FLAGSTAFF      SUNNY     56  -3   9 W7        30.02F
PAYSON           N/A     66  14  13 W13G21    29.98S
PAGE           SUNNY     62  25  24 MISG      29.96F
$$

AZZ009>014-017-242100-
NORTHEAST ARIZONA

CITY           SKY/WX    TMP DP  RH WIND       PRES   REMARKS
WINSLOW        SUNNY     68  21  16 N7        29.96F
SAINT JOHNS    SUNNY     70  14  11 NW15G24   29.93F
WINDOW ROCK    SUNNY     62  20  19 SW15G24   30.01F
SHOW LOW       SUNNY     63  23  22 SW16G25   30.01F
$$

AZZ540-542>544-546-548-242100-
GREATER PHOENIX AREA

CITY           SKY/WX    TMP DP  RH WIND       PRES   REMARKS
PHOENIX        SUNNY     81  23  11 SW13      29.79F
BUCKEYE        SUNNY     81  14   8 SW5       29.82F
GLENDALE       SUNNY     82  19   9 VRB5      29.83F
LUKE AFB       SUNNY     82  17   9 CALM      29.80F
DEER VALLEY    SUNNY     81  18   9 CALM      29.81F
SCOTTSDALE     SUNNY     81  20  10 SW7       29.83F
MESA-GATEWAY   SUNNY     81  28  15 NW7       29.83F
CHANDLER       SUNNY     82  25  12 W7        29.81F
$$

AZZ539-553-242100-
SOUTHWEST MARICOPA COUNTY AND PINAL COUNTY

CITY           SKY/WX    TMP DP  RH WIND       PRES   REMARKS
CASA GRANDE    NOT AVBL
GILA BEND      FAIR      82  17   9 W10       29.81F
$$

AZZ503-504-507>509-242100-
SOUTHEAST ARIZONA

CITY           SKY/WX    TMP DP  RH WIND       PRES   REMARKS
TUCSON         SUNNY     81  30  15 W7        29.86F
DAVIS-MONTHAN  SUNNY     82  33  17 SW6       29.84F
RYAN FIELD     SUNNY     81  32  17 MISG      29.86F
NOGALES        SUNNY     81  36  19 SW7       29.89F
SIERRA VISTA   SUNNY     76  37  23 N3        29.92F
DOUGLAS        MOSUNNY   80  43  26 SW10G23   29.87F
SAFFORD        SUNNY     79  32  18 S7        29.84F
$$

AZZ532-242100-
SOUTHWEST ARIZONA

CITY           SKY/WX    TMP DP  RH WIND       PRES   REMARKS
YUMA           SUNNY     85  25  11 N14G25    29.83F
$$

CAZ041-043-047-048-061-525>527-560>570-242100-
SOUTHERN CALIFORNIA

CITY           SKY/WX    TMP DP  RH WIND       PRES   REMARKS
DOWNTOWN L.A.  SUNNY     85  37  18 CALM      29.85F
L.A. AIRPORT   MOSUNNY   76  55  48 W13       29.87F
SAN DIEGO      SUNNY     76  53  44 W12       29.86F
BURBANK        SUNNY     80  27  14 VRB5      29.88F
ONTARIO        MOSUNNY   82  22  11 SE6       29.88F
RIVERSIDE      SUNNY     82  27  13 CALM      29.87F
PALM SPRINGS   SUNNY     85  22  10 NE5       29.89F
EL CENTRO NAS  SUNNY     85  22  10 N6        29.87F
IMPERIAL       SUNNY     84  34  16 VRB6      29.85F
BLYTHE         SUNNY     83  27  13 N17G23    29.87F
NEEDLES        SUNNY     80  22  11 N17G30    29.92F
$$

NVZ020-UTZ003-242100-
SOUTHERN NEVADA-UTAH

CITY           SKY/WX    TMP DP  RH WIND       PRES   REMARKS
LAS VEGAS      SUNNY     70  26  19 NE7       29.97F
SALT LAKE CITY RAIN      46  43  89 NW10      30.00R FOG
$$

NMZ009-TXZ055-242100-
NEW MEXICO-WEST TEXAS

CITY           SKY/WX    TMP DP  RH WIND       PRES   REMARKS
ALBUQUERQUE    SUNNY     70  23  17 S14G21    29.94F
EL PASO        MOSUNNY   86  43  22 S13       29.86F
$$


........................KEY........................
SKY/WX - SKY CONDITION/WEATHER
TMP    - TEMPERATURE IN FAHRENHEIT
DP     - DEW POINT IN FAHRENHEIT
RH     - RELATIVE HUMIDITY IN PERCENT
WIND   - DIRECTION AND SPEED IN MILES PER HOUR (MPH)
VRB    - VARIABLE WIND DIRECTION
PRES   - MEAN SEA LEVEL PRESSURE IN INCHES OF MERCURY
         F - FALLING PRESSURE   R - RISING PRESSURE
         S - STEADY PRESSURE
VSB    - VISIBILITY IN MILES
HX     - HEAT INDEX IN FAHRENHEIT
WCI    - WIND CHILL INDEX IN FAHRENHEIT
TC     - TEMPERATURE IN CELSIUS WHICH IS ALSO KNOWN AS
         TEMPERATURE IN CENTIGRADE
AFB    - AIR FORCE BASE
         LUKE AFB IS LUKE AIR FORCE BASE
         DAVIS-MONTHAN IS DAVIS-MONTHAN AIR FORCE BASE
NAS    - NAVAL AIR STATION
         EL CENTRO NAS IS EL CENTRO NAVAL AIR STATION
N/A    - NOT AVAILABLE




USA.gov is the U.S. government's official web portal to all federal, state and local government web resources and services.